Home > Weather > Porto Acre > Past weeks

Flag for Brazil Past Weather in Porto Acre, Acre, Brazil — Yesterday and Last 2 Weeks

Now
88 °F

Sunny.


Feels Like: 88 °F
Forecast: 66 / 96 °F
Wind: 3 mph from North

Location: Rio Branco Airport

Current Time: Jul 25, 2016 at 11:06:23 AM

Latest Report: Jul 25, 2016 at 10:00 AM


Visibility: 10 mi

Pressure: 29.98 "Hg

Humidity: 43%

Dew Point: 63 °F

Location of Porto AcreLocation

Past Weather in Porto Acre — Graph

°F

Porto Acre Temperature Yesterday

Maximum temperature yesterday: 93 °F (at 1:00 PM)
Minimum temperature yesterday: 64 °F (at 6:00 AM)
Average temperature yesterday: 78 °F

High & Low Weather Summary for the Past Weeks

 TemperatureHumidityPressure
High93 °F (Jul 15, 3:00 PM)100% (Jul 11, 6:00 AM)30.09 "Hg (Jul 11, 6:00 AM)
Low61 °F (Jul 18, 6:00 AM)34% (Jul 23, 12:00 PM)29.80 "Hg (Jul 15, 3:00 PM)
Average77 °F70%29.94 "Hg
* Reported Jul 10 10:00 AM — Jul 25 10:00 AM, Porto Acre, Weather by CustomWeather, © 2016

Note: Actual official high and low records may vary slightly from our data, if they occured in-between our weather recording intervals... More about our weather records

Advertising

Porto Acre Weather History for the Previous 24 Hours

Scroll right to see more
 ConditionsComfort  
Time TempWeatherWind HumidityBarometerVisibility
10:00 AM
Mon, Jul 25
88 °FSunny.3 mph43%29.98 "Hg10 mi
9:00 AM84 °FClear.2 mph51%29.98 "Hg5 mi
8:00 AM77 °FClear.5 mph65%29.95 "Hg5 mi
7:00 AM70 °FSunny.No wind83%29.95 "Hg10 mi
6:00 AM64 °FFog.3 mph94%29.92 "Hg3 mi
5:00 AM66 °FClear.No wind88%29.89 "Hg10 mi
4:00 AM66 °FClear.No wind83%29.89 "Hg10 mi
3:00 AM66 °FClear.No wind88%29.89 "Hg10 mi
2:00 AM70 °FClear.No wind73%29.89 "Hg10 mi
1:00 AM70 °FClear.No wind83%29.92 "Hg10 mi
12:00 AM72 °FClear.No wind73%29.92 "Hg10 mi
11:00 PM
Sun, Jul 24
70 °FClear.No wind83%29.92 "Hg10 mi
10:00 PM72 °FClear.No wind83%29.92 "Hg10 mi
9:00 PM73 °FClear.No wind74%29.92 "Hg6 mi
8:00 PM73 °FClear.1 mph78%29.89 "Hg10 mi
7:00 PM75 °FPassing clouds.No wind69%29.86 "Hg6 mi
6:00 PM77 °FPassing clouds.2 mph74%29.86 "Hg5 mi
5:00 PM86 °FPassing clouds.No wind52%29.86 "HgN/A
4:00 PM88 °FPassing clouds.No wind49%29.86 "HgN/A
3:00 PM91 °FPassing clouds.2 mph36%29.86 "HgN/A
2:00 PM93 °FSunny.3 mph34%29.89 "Hg10 mi
1:00 PM93 °FSunny.5 mph34%29.92 "Hg10 mi
12:00 PM90 °FSunny.3 mph38%29.95 "Hg10 mi
11:00 AM90 °FPassing clouds.5 mph41%29.98 "HgN/A
Weather by CustomWeather, © 2016

See weather overviewHow to use our weather pages